Regional Weather Roundup
Issued by NWS

Home | Current Version | Previous Version | Text Only | Print | Product List | Glossary Off
Versions: 1 2 3 4 5 6 7 8 9 10 11 12 13 14 15 16 17 18 19 20 21 22 23 24 25 26 27 28 29 30 31 32 33 34 35 36 37 38 39 40 41 42 43 44 45 46 47 48 49 50

000
ASUS45 KTFX 160504
RWRMT
MONTANA HOURLY WEATHER ROUNDUP
NATIONAL WEATHER SERVICE GREAT FALLS MT
1104 PM MDT MON SEP 15 2014

NOTE: "FAIR" INDICATES FEW OR NO CLOUDS BELOW 12000 FEET WITH NO
SIGNIFICANT WEATHER AND/OR OBSTRUCTIONS TO VISIBILITY.

* THESE STATIONS ARE NOT UNDER NWS QUALITY CONTROL. THEY DO NOT
   REPORT WEATHER SUCH AS PRECIPITATION OR FOG.

MTZ001>007-043-160600-
WEST OF THE DIVIDE
CITY           SKY/WX    TMP DP  RH WIND       PRES   REMARKS
KALISPELL      CLEAR     46  37  71 CALM      30.00S
MISSOULA       PTCLDY    61  34  36 CALM      30.01S
BUTTE          PTCLDY    50  30  46 S8        30.16S
MULLAN PASS    PTCLDY    64  21  19 SE3       30.14F
* LINCOLN      N/A       47  34  61 N/A        N/A
* LOOKOUT PASS N/A       57  32  39 SE1        N/A
* POLSON       N/A       57  28  33 N/A        N/A
* RONAN APT    CLEAR     48  36  63 N/A        N/A
* SEELEY LAKE  N/A       46  31  56 E1         N/A
* THOMP F APT  PTCLDY    59  24  26 E1G12      N/A
$$

MTZ008-052>055-160600-
SOUTHWEST MONTANA
CITY           SKY/WX    TMP DP  RH WIND       PRES   REMARKS
BOZEMAN        CLEAR     43  36  76 SE7       30.11R
DILLON         PTCLDY    52  30  43 SW3       30.13R
W YELLOWSTONE  CLEAR     39  25  57 CALM      30.25R
* THREE FORKS  CLEAR     50  50 100 N/A        N/A
* BOULDER HILL N/A       58  31  36 SW8        N/A
* MONIDA PASS  N/A       56  25  30 SW1        N/A
* RAYNOLDS PAS N/A       51  25  36 N/A        N/A
* WHITEHALL    N/A       53  36  53 N3G9       N/A
* WISE RIVER   N/A       52  25  35 S3         N/A
$$

MTZ009>010-012-014-046-048-049-054-160600-
EAST SLOPES AND CENTRAL MONTANA
CITY           SKY/WX    TMP DP  RH WIND       PRES   REMARKS
CUT BANK       CLEAR     48  36  63 W9        30.03S
GREAT FALLS    CLEAR     48  39  71 SW6       30.02S
HELENA         FAIR      55  37  51 S3        30.06R
MALMSTROM AFB  CLEAR     48  41  77 S10       30.03S
* CONRAD       CLEAR     48  43  83 N/A        N/A
* EAST GLACIER N/A       48  35  61 VRB10      N/A
* MONARCH      N/A       50  28  43 S8         N/A
* PENDROY      N/A       51  37  59 W3         N/A
* SAINT MARY   N/A       43  35  73 SE3        N/A
* SWEET GRASS  N/A       59  39  48 S13        N/A
$$

MTZ011-013-016-021-035-040-045-047-050-051-160600-
NORTH CENTRAL MONTANA
CITY           SKY/WX    TMP DP  RH WIND       PRES   REMARKS
HAVRE          CLEAR     52  45  77 NE3       29.99F
LEWISTOWN      CLEAR     50  41  71 S6        30.07S
* CHESTER      N/A       56  41  57 SE1        N/A
* DENTON       N/A       47  42  83 SW3        N/A
* JUDITH GAP   N/A       49  44  83 S4         N/A
* LOMA         N/A       58  42  55 NE9        N/A
$$

MTZ017>020-022>027-061-062-160600-
NORTHEAST MONTANA
CITY           SKY/WX    TMP DP  RH WIND       PRES   REMARKS
GLASGOW        CLEAR     52  37  57 E10       30.03S
GLENDIVE       CLEAR     48  36  63 E5        30.08R
JORDAN         CLEAR     46  41  83 CALM      30.03S
SIDNEY         CLEAR     43  36  76 CALM      30.07F
WOLF POINT     CLEAR     45  34  65 NE3       30.05S
* BEAVER HILL  N/A       53  36  53 E7         N/A
* CIRCLE       N/A       49  40  71 N/A        N/A
* LINDSAY DVD  N/A       50  36  59 NE2        N/A
* NAVAJO       N/A       50  31  48 W8         N/A
* SACO         N/A       49  42  77 E6         N/A
$$

MTZ028>042-056>058-160600-
SOUTHCENTRAL AND SOUTHEAST MONTANA
CITY           SKY/WX    TMP DP  RH WIND       PRES   REMARKS
BAKER          CLEAR     52  45  77 S9        30.07F
BILLINGS       CLEAR     61  43  52 SE3       30.07R
LIVINGSTON     CLEAR     46  36  68 CALM      30.12R
MILES CITY     CLEAR     52  41  66 NE7       30.04S
* LAUREL APT   CLEAR     52  43  72 N/A        N/A
* ROUNDUP APT  CLEAR     57  43  60 N/A        N/A
* ALZADA       N/A       52  45  77 NE6        N/A
* HYSHAM       N/A       59  35  41 N/A        N/A
* LAME DEER    N/A       62  39  43 SE4        N/A
* REED POINT   N/A       48  44  86 N/A        N/A
* ROSCOE HILL  N/A       59  27  29 S10G15     N/A
$$

REGIONAL REPORTS...DAKOTAS
CITY           SKY/WX    TMP DP  RH WIND       PRES   REMARKS
WILLISTON      CLEAR     39  34  82 CALM      30.06S
DICKINSON      CLEAR     45  37  74 S8        30.07F
BEACH          N/A       41  39  93 S3        30.08F
CROSBY         CLEAR     45  37  74 S9        30.05S
TIOGA          CLEAR     37  32  82 CALM      30.10S
WATFORD CITY   CLEAR     39  32  76 CALM      30.06S
BISMARCK       CLEAR     46  39  77 E3        30.12F
GRAND FORKS    CLEAR     52  39  61 SW9       30.07F
FARGO          CLEAR     54  37  53 SW14      30.13S
BUFFALO SD     CLEAR     52  43  72 CALM      30.03F
RAPID CITY     CLEAR     48  43  83 SE8       30.10F
$$

REGIONAL REPORTS...WYOMING/IDAHO/WASHINGTON
CITY           SKY/WX    TMP DP  RH WIND       PRES   REMARKS
GILLETTE       CLEAR     55  45  69 S12       30.11S
SHERIDAN       CLEAR     48  43  83 N5        30.10R
CODY           CLEAR     57  43  60 SW6       30.16S
YELLOWSTONE LA CLEAR     39  30  70 CALM      30.35S
SALMON         PTCLDY    55  37  51 CALM      30.05R
MULLAN PASS    PTCLDY    64  21  19 SE3       30.14S
SAND POINT     CLEAR     46  41  83 CALM      29.95S
SPOKANE        MOCLDY    66  30  26 N3        29.92S

$$



USA.gov is the U.S. government's official web portal to all federal, state and local government web resources and services.